Change the Weather History Date:

Saturday, May 4, 2013

  Actual Average Record
Temperature  
Mean Temperature 45 °F 59 °F  
Max Temperature 62 °F 73 °F 97 °F (2014)
Min Temperature 27 °F 46 °F 27 °F (2013)
Degree Days  
Heating Degree Days 20 7  
Month to date heating degree days 81 29  
Since 1 July heating degree days 5135 5091  
Cooling Degree Days 0 1  
Month to date cooling degree days 0 4  
Year to date cooling degree days 4 16  
Moisture  
Dew Point 18 °F    
Average Humidity 45    
Maximum Humidity 78    
Minimum Humidity 12    
Precipitation  
Precipitation 0.00 in 0.08 in 0.63 in (1961)
Month to date precipitation 0.03 0.30  
Year to date precipitation 0.91 4.36  
Sea Level Pressure  
Sea Level Pressure 30.10 in    
Wind  
Wind Speed 17 mph (North)    
Max Wind Speed 30 mph    
Max Gust Speed 38 mph    
Visibility 10 miles    
Events      
T = Trace of Precipitation, MM = Missing Value Source: NWS Daily Summary

Daily Weather History Graph

Daily Weather History Graph

Search for Another Location

Airport or City:

Trip Planner

Search our weather history database for the weather conditions in past years. The results will help you decide how hot, cold, wet, or windy it might be!

Date:

Astronomy

May. 04, 2013 Rise Set
Actual Time 6:43 AM CDT 8:36 PM CDT
Civil Twilight 6:14 AM CDT 9:05 PM CDT
Nautical Twilight 5:39 AM CDT 9:40 PM CDT
Astronomical Twilight 5:02 AM CDT 10:17 PM CDT
Moon 3:37 AM CDT (5/4) 3:41 PM CDT (5/4)
Length of Visible Light 14h 50m
Length of Day
13h 53m
Waning Crescent, 27% of the Moon is Illuminated
May 4
Waning Crescent
May 9
New
May 17
First Quarter
May 24
Full
May 31
Last Quarter

Hourly Weather History & Observations

Time (CDT) Temp. Windchill Dew Point Humidity Pressure Visibility Wind Dir Wind Speed Gust Speed Precip Events Conditions
12:54 AM 36.0 °F 30.3 °F 24.1 °F 62% 30.09 in 10.0 mi NNE 6.9 mph - N/A   Clear
1:54 AM 30.9 °F 24.3 °F 23.0 °F 72% 30.10 in 10.0 mi North 6.9 mph - N/A   Clear
2:54 AM 33.1 °F 26.1 °F 25.0 °F 72% 30.09 in 10.0 mi NNW 8.1 mph - N/A   Clear
3:54 AM 30.9 °F 22.8 °F 24.1 °F 76% 30.09 in 10.0 mi North 9.2 mph - N/A   Clear
4:54 AM 30.0 °F 21.7 °F 24.1 °F 79% 30.10 in 10.0 mi North 9.2 mph - N/A   Clear
5:54 AM 28.0 °F 19.3 °F 23.0 °F 81% 30.12 in 10.0 mi NNW 9.2 mph - N/A   Clear
6:54 AM 28.0 °F 17.5 °F 21.9 °F 78% 30.12 in 10.0 mi North 12.7 mph - N/A   Clear
7:54 AM 35.1 °F 25.5 °F 21.9 °F 59% 30.12 in 10.0 mi North 15.0 mph - N/A   Clear
8:54 AM 41.0 °F 32.2 °F 21.0 °F 45% 30.12 in 10.0 mi North 18.4 mph - N/A   Clear
9:54 AM 46.0 °F 37.8 °F 18.0 °F 33% 30.11 in 10.0 mi North 23.0 mph 31.1 mph N/A   Clear
10:54 AM 50.0 °F - 16.0 °F 26% 30.11 in 10.0 mi North 24.2 mph 32.2 mph N/A   Clear
11:54 AM 54.0 °F - 10.9 °F 18% 30.10 in 10.0 mi North 27.6 mph 33.4 mph N/A   Clear
12:54 PM 55.9 °F - 12.0 °F 18% 30.10 in 10.0 mi North 27.6 mph 35.7 mph N/A   Clear
1:54 PM 59.0 °F - 6.1 °F 12% 30.08 in 10.0 mi North 26.5 mph 33.4 mph N/A   Clear
2:54 PM 61.0 °F - 8.1 °F 12% 30.07 in 10.0 mi North 23.0 mph 36.8 mph N/A   Clear
3:54 PM 61.0 °F - 9.0 °F 13% 30.06 in 10.0 mi North 26.5 mph 35.7 mph N/A   Clear
4:54 PM 62.1 °F - 9.0 °F 12% 30.05 in 10.0 mi North 24.2 mph 35.7 mph N/A   Clear
5:54 PM 62.1 °F - 10.9 °F 13% 30.06 in 10.0 mi North 21.9 mph 29.9 mph N/A   Clear
6:54 PM 60.1 °F - 17.1 °F 19% 30.07 in 10.0 mi North 20.7 mph - N/A   Clear
7:54 PM 57.0 °F - 21.0 °F 25% 30.08 in 10.0 mi NNE 18.4 mph - N/A   Clear
8:54 PM 50.0 °F - 24.1 °F 36% 30.11 in 10.0 mi NE 11.5 mph - N/A   Clear
9:54 PM 46.0 °F 41.0 °F 23.0 °F 40% 30.14 in 10.0 mi NE 10.4 mph - N/A   Clear
10:54 PM 43.0 °F 37.2 °F 23.0 °F 45% 30.17 in 10.0 mi NNE 10.4 mph - N/A   Clear
11:54 PM 39.9 °F 32.9 °F 24.1 °F 53% 30.18 in 10.0 mi NNE 11.5 mph - N/A   Clear